Torna al catalogo

COSMOS 970 DEB

AttivoLEO
NORAD 65008·DEBRIS·🇷🇺 Russia

Lanciato Dec 21, 1977 da Baikonur Cosmodrome

Loading…

Prossimi Passaggi (prossime 24 ore)

TLE

In scadenzaSource: Space-Track

Epoca: Sep 12, 2026, 09:14 UTC

1 65008U 77121DV  26255.38503799  .00000522  00000-0  49547-3 0  9992
2 65008  65.8160 214.8933 0113140  33.5056  46.5078 13.86526485646676

Traccia COSMOS 970 DEB in tempo reale con AllMySat

Download on the App Store